When you browse on this site, cookies collect data to enhance your experience and personalize the content and advertising you see.
Visit our Privacy Policy to learn more. By continuing to use the site, you agree to this use of cookies and data.
  • In Switzerland
  • List of Countries
  • For 7 days
  • Water Temperature
  • Weather Map
  • Weather Widgets
  • user-avatar
    Login

    Hourly Weather Phoenix

    Today, 6 June, Saturday

    Time Temperature Precipitation Wind Pressure Humidity
    00:00 +30°C° 0 mm 5 mps 726 mmHg 25%
    01:00 +28°C° 0 mm 6 mps 726 mmHg 32%
    02:00 +27°C° 0 mm 7 mps 726 mmHg 40%
    03:00 +26°C° 0 mm 6 mps 727 mmHg 42%
    04:00 +25°C° 0 mm 5 mps 727 mmHg 45%
    05:00 +23°C° 0 mm 4 mps 728 mmHg 48%
    06:00 +23°C° 0 mm 4 mps 728 mmHg 47%
    07:00 +25°C° 0 mm 3 mps 729 mmHg 45%
    08:00 +25°C° 0 mm 2 mps 730 mmHg 44%
    09:00 +27°C° 0 mm 2 mps 730 mmHg 40%
    10:00 +28°C° 0 mm 2 mps 730 mmHg 36%
    11:00 +29°C° 0 mm 2 mps 729 mmHg 31%
    12:00 +31°C° 0 mm 2 mps 729 mmHg 27%
    13:00 +33°C° 0 mm 3 mps 728 mmHg 23%
    14:00 +34°C° 0 mm 3 mps 728 mmHg 19%
    15:00 +35°C° 0 mm 4 mps 727 mmHg 18%
    16:00 +35°C° 0 mm 5 mps 727 mmHg 18%
    17:00 +36°C° 0 mm 5 mps 726 mmHg 17%
    18:00 +35°C° 0 mm 5 mps 727 mmHg 18%
    19:00 +34°C° 0 mm 4 mps 727 mmHg 20%
    20:00 +33°C° 0 mm 3 mps 727 mmHg 22%
    21:00 +33°C° 0 mm 4 mps 727 mmHg 23%
    22:00 +32°C° 0 mm 4 mps 727 mmHg 25%
    23:00 +32°C° 0 mm 5 mps 728 mmHg 27%

    Tomorrow, 7 June, Sunday

    Time Temperature Precipitation Wind Pressure Humidity
    00:00 +29°C° 0 mm 4 mps 727 mmHg 27%
    01:00 +28°C° 0 mm 4 mps 727 mmHg 27%
    02:00 +27°C° 0 mm 3 mps 727 mmHg 28%
    03:00 +27°C° 0 mm 3 mps 727 mmHg 29%
    04:00 +26°C° 0 mm 2 mps 727 mmHg 31%
    05:00 +26°C° 0 mm 2 mps 727 mmHg 32%
    06:00 +27°C° 0 mm 2 mps 727 mmHg 29%
    07:00 +28°C° 0 mm 2 mps 727 mmHg 26%
    08:00 +29°C° 0 mm 2 mps 728 mmHg 23%
    09:00 +30°C° 0 mm 2 mps 728 mmHg 22%
    10:00 +31°C° 0 mm 2 mps 727 mmHg 21%
    11:00 +34°C° 0 mm 3 mps 727 mmHg 20%
    12:00 +35°C° 0 mm 4 mps 727 mmHg 17%
    13:00 +36°C° 0 mm 5 mps 727 mmHg 14%
    14:00 +39°C° 0 mm 6 mps 726 mmHg 11%
    15:00 +39°C° 0 mm 6 mps 726 mmHg 10%
    16:00 +39°C° 0 mm 6 mps 726 mmHg 9%
    17:00 +39°C° 0 mm 7 mps 725 mmHg 9%
    18:00 +38°C° 0 mm 6 mps 725 mmHg 8%
    19:00 +36°C° 0 mm 6 mps 726 mmHg 8%
    20:00 +34°C° 0 mm 6 mps 726 mmHg 8%
    21:00 +33°C° 0 mm 5 mps 726 mmHg 9%
    22:00 +32°C° 0 mm 5 mps 727 mmHg 10%
    23:00 +30°C° 0 mm 4 mps 727 mmHg 11%

    Day after tomorrow, 8 June, Monday

    Time Temperature Precipitation Wind Pressure Humidity
    00:00 +29°C° 0 mm 4 mps 727 mmHg 14%
    01:00 +28°C° 0 mm 5 mps 727 mmHg 17%
    02:00 +27°C° 0 mm 5 mps 727 mmHg 20%
    03:00 +26°C° 0 mm 4 mps 727 mmHg 20%
    04:00 +26°C° 0 mm 3 mps 727 mmHg 20%
    05:00 +25°C° 0 mm 2 mps 727 mmHg 21%
    06:00 +26°C° 0 mm 2 mps 728 mmHg 18%
    07:00 +27°C° 0 mm 2 mps 728 mmHg 15%
    08:00 +28°C° 0 mm 2 mps 729 mmHg 12%
    09:00 +30°C° 0 mm 3 mps 729 mmHg 11%
    10:00 +32°C° 0 mm 4 mps 729 mmHg 9%
    11:00 +34°C° 0 mm 4 mps 729 mmHg 8%
    12:00 +34°C° 0 mm 5 mps 729 mmHg 7%
    13:00 +35°C° 0 mm 5 mps 729 mmHg 6%
    14:00 +36°C° 0 mm 6 mps 728 mmHg 6%
    15:00 +38°C° 0 mm 6 mps 728 mmHg 5%
    16:00 +38°C° 0 mm 6 mps 728 mmHg 4%
    17:00 +38°C° 0 mm 7 mps 728 mmHg 4%
    18:00 +36°C° 0 mm 6 mps 728 mmHg 4%
    19:00 +34°C° 0 mm 6 mps 729 mmHg 4%
    20:00 +33°C° 0 mm 5 mps 729 mmHg 4%
    21:00 +32°C° 0 mm 5 mps 730 mmHg 4%
    22:00 +30°C° 0 mm 4 mps 730 mmHg 5%
    23:00 +28°C° 0 mm 4 mps 731 mmHg 5%

    9 June, Tuesday

    Time Temperature Precipitation Wind Pressure Humidity
    00:00 +28°C° 0 mm 4 mps 731 mmHg 6%
    01:00 +27°C° 0 mm 4 mps 731 mmHg 6%
    02:00 +26°C° 0 mm 4 mps 731 mmHg 6%
    03:00 +25°C° 0 mm 4 mps 731 mmHg 7%
    04:00 +25°C° 0 mm 3 mps 731 mmHg 7%
    05:00 +24°C° 0 mm 3 mps 731 mmHg 7%
    06:00 +26°C° 0 mm 3 mps 732 mmHg 7%
    07:00 +27°C° 0 mm 3 mps 732 mmHg 7%
    08:00 +28°C° 0 mm 4 mps 732 mmHg 7%
    09:00 +30°C° 0 mm 3 mps 732 mmHg 6%
    10:00 +31°C° 0 mm 3 mps 732 mmHg 6%
    11:00 +34°C° 0 mm 2 mps 732 mmHg 5%
    12:00 +35°C° 0 mm 2 mps 732 mmHg 5%
    13:00 +35°C° 0 mm 1 mps 731 mmHg 4%
    14:00 +36°C° 0 mm 1 mps 731 mmHg 4%
    15:00 +36°C° 0 mm 1 mps 731 mmHg 4%
    16:00 +37°C° 0 mm 2 mps 730 mmHg 4%
    17:00 +38°C° 0 mm 2 mps 730 mmHg 3%
    18:00 +36°C° 0 mm 2 mps 730 mmHg 4%
    19:00 +35°C° 0 mm 2 mps 730 mmHg 4%
    20:00 +34°C° 0 mm 2 mps 731 mmHg 5%
    21:00 +32°C° 0 mm 1 mps 731 mmHg 5%
    22:00 +31°C° 0 mm 1 mps 732 mmHg 5%
    23:00 +31°C° 0 mm 1 mps 732 mmHg 6%

    10 June, Wednesday

    Time Temperature Precipitation Wind Pressure Humidity
    00:00 +30°C° 0 mm 1 mps 732 mmHg 6%
    01:00 +29°C° 0 mm 1 mps 731 mmHg 6%
    02:00 +29°C° 0 mm 1 mps 731 mmHg 7%
    03:00 +28°C° 0 mm 1 mps 731 mmHg 7%
    04:00 +27°C° 0 mm 1 mps 731 mmHg 8%
    05:00 +27°C° 0 mm 1 mps 731 mmHg 8%
    06:00 +29°C° 0 mm 1 mps 732 mmHg 7%
    07:00 +30°C° 0 mm 2 mps 732 mmHg 7%
    08:00 +32°C° 0 mm 2 mps 732 mmHg 6%
    09:00 +35°C° 0 mm 2 mps 732 mmHg 6%
    10:00 +35°C° 0 mm 1 mps 732 mmHg 5%
    11:00 +37°C° 0 mm 1 mps 732 mmHg 4%
    12:00 +39°C° 0 mm 1 mps 732 mmHg 4%
    13:00 +40°C° 0 mm 1 mps 731 mmHg 4%
    14:00 +40°C° 0 mm 1 mps 731 mmHg 4%
    15:00 +41°C° 0 mm 1 mps 730 mmHg 4%
    16:00 +41°C° 0 mm 2 mps 730 mmHg 3%
    17:00 +41°C° 0 mm 2 mps 730 mmHg 3%
    18:00 +40°C° 0 mm 2 mps 730 mmHg 4%
    19:00 +39°C° 0 mm 2 mps 730 mmHg 4%
    20:00 +36°C° 0 mm 1 mps 730 mmHg 4%
    21:00 +35°C° 0 mm 1 mps 730 mmHg 4%
    22:00 +34°C° 0 mm 1 mps 730 mmHg 5%
    23:00 +33°C° 0 mm 1 mps 731 mmHg 5%

    11 June, Thursday

    Time Temperature Precipitation Wind Pressure Humidity
    00:00 +33°C° 0 mm 1 mps 731 mmHg 5%
    01:00 +32°C° 0 mm 1 mps 730 mmHg 6%
    02:00 +31°C° 0 mm 1 mps 730 mmHg 6%
    03:00 +30°C° 0 mm 1 mps 730 mmHg 6%
    04:00 +30°C° 0 mm 1 mps 730 mmHg 7%
    05:00 +29°C° 0 mm 1 mps 730 mmHg 7%
    06:00 +31°C° 0 mm 1 mps 731 mmHg 6%
    07:00 +33°C° 0 mm 1 mps 731 mmHg 6%
    08:00 +35°C° 0 mm 1 mps 731 mmHg 5%
    09:00 +36°C° 0 mm 1 mps 731 mmHg 5%
    10:00 +39°C° 0 mm 1 mps 731 mmHg 5%
    11:00 +40°C° 0 mm 1 mps 731 mmHg 4%
    12:00 +41°C° 0 mm 1 mps 731 mmHg 4%
    13:00 +42°C° 0 mm 1 mps 730 mmHg 4%
    14:00 +43°C° 0 mm 1 mps 730 mmHg 3%
    15:00 +44°C° 0 mm 1 mps 729 mmHg 4%
    16:00 +44°C° 0 mm 1 mps 729 mmHg 4%
    17:00 +44°C° 0 mm 1 mps 729 mmHg 4%
    18:00 +42°C° 0 mm 1 mps 729 mmHg 4%
    19:00 +41°C° 0 mm 1 mps 729 mmHg 5%
    20:00 +39°C° 0 mm 1 mps 729 mmHg 6%
    21:00 +37°C° 0 mm 1 mps 729 mmHg 6%
    22:00 +37°C° 0 mm 2 mps 729 mmHg 6%
    23:00 +36°C° 0 mm 2 mps 730 mmHg 7%
    Show more